Location: Chuathbaluk
(61.5726°N, 159.2454°W)
Time: 14:01:30
(UTC+00:00)

XW-2F - Pass Details

Date: 25 January 2021
Orbit: 500 x 520 km, 97.5° (Epoch: 01 March)

Event Time Altitude Azimuth Distance (km) Brightness Sun altitude
Rises 16:16:02 0° 20° (NNE) 2,665 ? -20.4°
Reaches altitude 10° 16:18:21 10° 32° (NNE) 1,772 ? -20.1°
Maximum altitude 16:21:44 29° 94° (E) 978 ? -19.7°
Drops below altitude 10° 16:25:06 10° 156° (SSE) 1,760 ? -19.3°
Sets 16:27:23 0° 168° (SSE) 2,642 ? -19.1°
